Overview Statistics Trail Chart Weather Telemetry Raw packets
 

This is the latest recevied weather packets stored in our database for station/object WA1NHP. If no packets are shown the sender has not sent any weather packets the latest 10 day(s).

<< 27 28 29 30 31 32 33 >>
Time Temp. Humidity Pressure Rain* Wind** Luminosity Snow
1788214444 20.56° C 83% 1023.9 hPa 0 mm - 39 W/m² -
1788213844 20.56° C 83% 1023.9 hPa 0 mm - 30 W/m² -
1788213243 20.56° C 82% 1023.9 hPa 0 mm - 53 W/m² -
1788212645 21.11° C 82% 1023.9 hPa 0 mm - 46 W/m² -
1788212043 21.11° C 79% 1023.9 hPa 0 mm - 40 W/m² -
1788211444 21.67° C 77% 1023.9 hPa 0 mm - 58 W/m² -
1788210844 21.67° C 77% 1023.9 hPa 0 mm - 58 W/m² -
1788210244 21.67° C 75% 1023.9 hPa 0 mm - 97 W/m² -
1788209644 22.22° C 75% 1023.9 hPa 0 mm - 207 W/m² -
1788209044 22.78° C 74% 1023.9 hPa 0 mm - 156 W/m² -
1788208444 22.78° C 75% 1023.9 hPa 0 mm - 181 W/m² -
1788207843 22.22° C 75% 1023.9 hPa 0 mm - 311 W/m² -
1788207244 22.22° C 76% 1023.9 hPa 0 mm - 246 W/m² -
1788206643 22.22° C 72% 1023.9 hPa 0 mm - 156 W/m² -
1788206044 22.22° C 74% 1023.9 hPa 0 mm - 232 W/m² -
1788205444 22.22° C 75% 1023.9 hPa 0 mm - 213 W/m² -
1788204844 22.22° C 70% 1023.9 hPa 0 mm - 200 W/m² -
1788204244 22.22° C 73% 1023.9 hPa 0 mm - 297 W/m² -
1788203643 22.22° C 76% 1023.9 hPa 0 mm - 244 W/m² -
1788203044 21.67° C 74% 1023.9 hPa 0 mm - 111 W/m² -
1788202443 22.22° C 69% 1023.9 hPa 0 mm - 162 W/m² -
1788201844 22.22° C 71% 1023.9 hPa 0 mm - 374 W/m² -
1788201244 23.33° C 67% 1023.9 hPa 0 mm - 603 W/m² -
1788200643 22.22° C 71% 1023.9 hPa 0 mm - 874 W/m² -
1788200044 21.67° C 71% 1023.9 hPa 0 mm - 297 W/m² -

* Rain latest hour (hover to see other rain measurements)
** Current wind speed in m/s (hover to see current wind gust speed)